Вернуться в каталог

STARLINK-30073

АктивенСвязьVLEO
NORAD 56840·PAYLOAD·🇺🇸 United States

Запущен Jun 4, 2023 с Cape Canaveral Space Force Station

Loading…

Ближайшие Пролёты (ближайшие 24 часа)

TLE

СвежийSource: CelesTrak SupGP

Эпоха: Sep 15, 2026, 02:12 UTC

1 56840C 23079T   26258.09215278  .00033551  00000+0  12143-2 0  2588
2 56840  43.0029 302.7329 0001395 265.8441 332.3031 15.27587471    10

Отслеживайте STARLINK-30073 в реальном времени с AllMySat

Download on the App Store